| time (UTC) | temp F | wind direction | speed knots | gust knots | rain 1hr in | rain 24hr in | rain mn in | humidity % | barometer mb |
| 20260901032040 | 56 | 267 | 0.0 | 3.5 | 0.00 | 0.08 | 0.02 | 97 | 1008.9 |
| 20260901031535 | 56 | 179 | 0.0 | 3.5 | 0.01 | 0.08 | 0.02 | 97 | 1008.8 |
| 20260901031035 | 56 | 282 | 0.9 | 4.3 | 0.01 | 0.08 | 0.02 | 97 | 1008.8 |
| 20260901030537 | 56 | 219 | 0.9 | 4.3 | 0.01 | 0.08 | 0.02 | 97 | 1008.8 |
| 20260901030035 | 56 | 260 | 1.7 | 5.2 | 0.01 | 0.08 | 0.02 | 97 | 1008.8 |
| 20260901025534 | 56 | 304 | 0.0 | 3.5 | 0.01 | 0.09 | 0.02 | 97 | 1008.7 |
| 20260901025034 | 56 | 319 | 0.0 | 2.6 | 0.01 | 0.09 | 0.02 | 97 | 1008.7 |
| 20260901024534 | 56 | 182 | 0.9 | 4.3 | 0.01 | 0.09 | 0.02 | 97 | 1008.6 |
| 20260901024034 | 56 | 288 | 0.9 | 4.3 | 0.01 | 0.09 | 0.02 | 97 | 1008.6 |
| 20260901023533 | 56 | 282 | 0.9 | 3.5 | 0.01 | 0.09 | 0.02 | 97 | 1008.6 |
| 20260901023033 | 56 | 297 | 0.9 | 3.5 | 0.01 | 0.09 | 0.02 | 97 | 1008.6 |
| 20260901022533 | 56 | 288 | 0.9 | 6.1 | 0.01 | 0.09 | 0.02 | 97 | 1008.6 |
| 20260901022033 | 56 | 254 | 0.9 | 6.1 | 0.01 | 0.09 | 0.02 | 97 | 1008.7 |
| 20260901021535 | 56 | 285 | 1.7 | 4.3 | 0.00 | 0.09 | 0.01 | 97 | 1008.6 |
| 20260901021031 | 56 | 326 | 0.9 | 3.5 | 0.00 | 0.09 | 0.01 | 97 | 1008.5 |
| 20260901020532 | 56 | 188 | 0.0 | 6.1 | 0.00 | 0.09 | 0.01 | 97 | 1008.4 |
| 20260901020030 | 56 | 279 | 0.0 | 6.1 | 0.00 | 0.09 | 0.01 | 97 | 1008.4 |
| 20260901015530 | 56 | 219 | 0.9 | 3.5 | 0.00 | 0.09 | 0.01 | 97 | 1008.4 |
| 20260901015028 | 56 | 291 | 0.9 | 3.5 | 0.00 | 0.09 | 0.01 | 97 | 1008.3 |
| 20260901014528 | 56 | 280 | 0.0 | 1.7 | 0.00 | 0.09 | 0.01 | 97 | 1008.2 |
| 20260901014027 | 56 | 279 | 0.0 | 2.6 | 0.00 | 0.09 | 0.01 | 97 | 1008.1 |
| 20260901013527 | 56 | 279 | 0.9 | 2.6 | 0.00 | 0.09 | 0.01 | 97 | 1008.1 |
| 20260901013026 | 56 | 279 | 0.0 | 1.7 | 0.00 | 0.09 | 0.01 | 97 | 1008.1 |
| 20260901012526 | 56 | 279 | 0.0 | 1.7 | 0.00 | 0.09 | 0.01 | 97 | 1008.1 |
| 20260901012026 | 56 | 279 | 0.0 | 2.6 | 0.00 | 0.09 | 0.01 | 97 | 1008.0 |
| 20260901011535 | 56 | 279 | 0.0 | 2.6 | 0.00 | 0.09 | 0.01 | 97 | 1008.0 |
| 20260901011025 | 56 | 279 | 0.0 | 2.6 | 0.00 | 0.09 | 0.01 | 97 | 1008.1 |
| 20260901010525 | 56 | 279 | 0.9 | 2.6 | 0.00 | 0.09 | 0.01 | 97 | 1008.0 |
| 20260901010035 | 56 | 279 | 0.0 | 1.7 | 0.00 | 0.09 | 0.01 | 97 | 1008.1 |
| 20260901005526 | 56 | 279 | 0.0 | 1.7 | 0.00 | 0.09 | 0.01 | 97 | 1008.0 |
| 20260901005025 | 56 | 279 | 0.0 | 2.6 | 0.00 | 0.09 | 0.01 | 96 | 1008.0 |
| 20260901004527 | 56 | 279 | 0.0 | 2.6 | 0.00 | 0.09 | 0.01 | 96 | 1008.0 |
| 20260901004023 | 56 | 246 | 0.0 | 0.9 | 0.00 | 0.09 | 0.01 | 96 | 1008.0 |
| 20260901003524 | 56 | 246 | 0.0 | 1.7 | 0.00 | 0.09 | 0.01 | 97 | 1008.0 |
| 20260901003024 | 57 | 246 | 0.0 | 2.6 | 0.00 | 0.09 | 0.01 | 97 | 1008.0 |
| 20260901002523 | 57 | 246 | 0.9 | 2.6 | 0.00 | 0.09 | 0.01 | 97 | 1008.0 |
| 20260901002023 | 57 | 247 | 0.0 | 1.7 | 0.00 | 0.09 | 0.01 | 97 | 1008.0 |
| 20260901001527 | 57 | 302 | 0.0 | 1.7 | 0.00 | 0.09 | 0.01 | 97 | 1007.9 |
| 20260901001021 | 57 | 302 | 0.0 | 1.7 | 0.00 | 0.09 | 0.01 | 97 | 1007.9 |
| 20260901000521 | 57 | 302 | 0.0 | 2.6 | 0.00 | 0.09 | 0.01 | 97 | 1007.9 |
| 20260901000021 | 57 | 302 | 0.0 | 3.5 | 0.00 | 0.09 | 0.01 | 97 | 1008.0 |
| 20260831235521 | 56 | 302 | 0.0 | 3.5 | 0.01 | 0.10 | 0.01 | 97 | 1007.9 |
| 20260831235020 | 56 | 304 | 0.0 | 1.7 | 0.01 | 0.10 | 0.01 | 96 | 1007.9 |
| 20260831234522 | 56 | 304 | 0.0 | 1.7 | 0.01 | 0.10 | 0.01 | 96 | 1007.9 |
| 20260831234019 | 56 | 306 | 0.0 | 0.9 | 0.01 | 0.10 | 0.01 | 96 | 1007.9 |
| 20260831233519 | 56 | 306 | 0.0 | 0.9 | 0.01 | 0.10 | 0.01 | 96 | 1007.9 |
| 20260831233034 | 56 | 306 | 0.0 | 0.9 | 0.01 | 0.10 | 0.01 | 96 | 1007.8 |
| 20260831232518 | 56 | 306 | 0.0 | 1.7 | 0.01 | 0.10 | 0.01 | 96 | 1007.8 |
| 20260831232021 | 56 | 244 | 0.0 | 1.7 | 0.01 | 0.10 | 0.01 | 96 | 1007.8 |
| 20260831231520 | 56 | 281 | 0.0 | 1.7 | 0.01 | 0.10 | 0.01 | 96 | 1007.8 |
| 20260831231016 | 56 | 281 | 0.0 | 1.7 | 0.01 | 0.10 | 0.01 | 96 | 1007.7 |
| 20260831230516 | 57 | 281 | 0.0 | 0.9 | 0.01 | 0.10 | 0.01 | 96 | 1007.7 |
| 20260831230016 | 57 | 281 | 0.0 | 1.7 | 0.00 | 0.09 | 0.00 | 96 | 1007.7 |
| 20260831225514 | 57 | 281 | 0.0 | 1.7 | 0.00 | 0.11 | 0.00 | 96 | 1007.6 |
| 20260831225017 | 57 | 281 | 0.0 | 1.7 | 0.00 | 0.11 | 0.00 | 96 | 1007.7 |
| 20260831224515 | 57 | 281 | 0.0 | 0.9 | 0.00 | 0.11 | 0.00 | 96 | 1007.7 |
| 20260831224014 | 57 | 301 | 0.0 | 0.9 | 0.00 | 0.11 | 0.00 | 96 | 1007.7 |
| 20260831223513 | 57 | 301 | 0.0 | 0.9 | 0.00 | 0.11 | 0.00 | 96 | 1007.6 |
| 20260831223012 | 57 | 301 | 0.0 | 0.9 | 0.00 | 0.11 | 0.00 | 96 | 1007.6 |
| 20260831222512 | 57 | 301 | 0.0 | 0.0 | 0.00 | 0.11 | 0.00 | 96 | 1007.5 |
| 20260831222014 | 57 | 301 | 0.0 | 0.9 | 0.00 | 0.11 | 0.00 | 96 | 1007.5 |
| 20260831221509 | 57 | 301 | 0.0 | 0.9 | 0.00 | 0.11 | 0.00 | 96 | 1007.5 |
| 20260831221009 | 57 | 301 | 0.0 | 1.7 | 0.00 | 0.11 | 0.00 | 96 | 1007.5 |
| 20260831220509 | 57 | 301 | 0.0 | 1.7 | 0.00 | 0.11 | 0.00 | 96 | 1007.5 |
| 20260831220011 | 57 | 301 | 0.0 | 0.9 | 0.00 | 0.11 | 0.00 | 96 | 1007.5 |
| 20260831215508 | 57 | 301 | 0.0 | 0.9 | 0.00 | 0.13 | 0.11 | 96 | 1007.5 |
| 20260831215006 | 57 | 301 | 0.0 | 0.9 | 0.00 | 0.13 | 0.11 | 96 | 1007.5 |
| 20260831214507 | 57 | 301 | 0.0 | 2.6 | 0.00 | 0.13 | 0.11 | 96 | 1007.5 |
| 20260831214007 | 57 | 301 | 0.0 | 2.6 | 0.00 | 0.13 | 0.11 | 96 | 1007.4 |
| 20260831213507 | 57 | 19 | 0.0 | 1.7 | 0.00 | 0.13 | 0.11 | 96 | 1007.4 |
| 20260831213006 | 57 | 280 | 0.0 | 1.7 | 0.00 | 0.13 | 0.11 | 95 | 1007.3 |
| 20260831212506 | 57 | 280 | 0.0 | 1.7 | 0.00 | 0.13 | 0.11 | 95 | 1007.3 |
| 20260831212006 | 57 | 280 | 0.0 | 1.7 | 0.00 | 0.13 | 0.11 | 95 | 1007.2 |
| 20260831211506 | 57 | 280 | 0.0 | 0.9 | 0.00 | 0.13 | 0.11 | 95 | 1007.2 |
| 20260831211005 | 57 | 280 | 0.0 | 1.7 | 0.00 | 0.13 | 0.11 | 95 | 1007.2 |
| 20260831210506 | 57 | 280 | 0.0 | 1.7 | 0.00 | 0.13 | 0.11 | 96 | 1007.2 |
| 20260831210006 | 57 | 280 | 0.0 | 0.9 | 0.00 | 0.13 | 0.11 | 96 | 1007.1 |
| 20260831205605 | 57 | 280 | 0.0 | 0.9 | 0.00 | 0.13 | 0.11 | 95 | 1007.2 |
| 20260831205008 | 57 | 280 | 0.0 | 1.7 | 0.00 | 0.13 | 0.11 | 95 | 1007.1 |
| 20260831204505 | 57 | 280 | 0.0 | 1.7 | 0.00 | 0.13 | 0.11 | 95 | 1007.1 |
| 20260831204005 | 57 | 280 | 0.0 | 1.7 | 0.00 | 0.13 | 0.11 | 95 | 1007.1 |
| 20260831203505 | 57 | 255 | 0.0 | 1.7 | 0.00 | 0.13 | 0.11 | 95 | 1007.0 |
| 20260831203004 | 57 | 223 | 0.0 | 1.7 | 0.00 | 0.13 | 0.11 | 95 | 1007.0 |
| 20260831202504 | 57 | 172 | 0.0 | 0.9 | 0.00 | 0.13 | 0.11 | 94 | 1007.0 |
| 20260831202004 | 57 | 172 | 0.0 | 0.9 | 0.00 | 0.13 | 0.11 | 95 | 1007.0 |
| 20260831201503 | 57 | 172 | 0.0 | 0.9 | 0.00 | 0.13 | 0.11 | 94 | 1007.1 |
| 20260831201003 | 57 | 172 | 0.0 | 0.9 | 0.00 | 0.13 | 0.11 | 94 | 1007.1 |
| 20260831200503 | 57 | 172 | 0.0 | 0.9 | 0.00 | 0.13 | 0.11 | 94 | 1007.1 |
| 20260831200003 | 57 | 172 | 0.0 | 0.0 | 0.00 | 0.13 | 0.11 | 94 | 1007.0 |
| 20260831195502 | 57 | 172 | 0.0 | 0.0 | 0.00 | 0.15 | 0.11 | 94 | 1007.0 |
| 20260831195003 | 57 | 172 | 0.0 | 0.0 | 0.00 | 0.15 | 0.11 | 94 | 1007.1 |
| 20260831194503 | 57 | 172 | 0.0 | 0.0 | 0.00 | 0.15 | 0.11 | 93 | 1007.0 |
| 20260831194002 | 57 | 172 | 0.0 | 0.0 | 0.00 | 0.15 | 0.11 | 93 | 1007.1 |
| 20260831193503 | 58 | 172 | 0.0 | 0.0 | 0.00 | 0.15 | 0.11 | 93 | 1007.0 |
| 20260831193001 | 58 | 172 | 0.0 | 0.0 | 0.00 | 0.15 | 0.11 | 93 | 1006.9 |
| 20260831192501 | 58 | 172 | 0.0 | 0.0 | 0.00 | 0.15 | 0.11 | 93 | 1006.9 |
| 20260831192001 | 58 | 172 | 0.0 | 0.0 | 0.00 | 0.15 | 0.11 | 93 | 1006.8 |
| 20260831191501 | 59 | 172 | 0.0 | 0.0 | 0.00 | 0.15 | 0.11 | 93 | 1006.8 |
| 20260831191001 | 59 | 172 | 0.0 | 0.0 | 0.00 | 0.15 | 0.11 | 93 | 1006.7 |
| 20260831190501 | 59 | 172 | 0.0 | 0.0 | 0.00 | 0.15 | 0.11 | 93 | 1006.8 |
| 20260831190001 | 59 | 172 | 0.0 | 0.0 | 0.00 | 0.15 | 0.11 | 93 | 1006.8 |
| 20260831185601 | 59 | 172 | 0.0 | 0.0 | 0.00 | 0.17 | 0.11 | 93 | 1006.7 |
| 20260831185104 | 60 | 172 | 0.0 | 0.9 | 0.00 | 0.17 | 0.11 | 92 | 1006.6 |
| 20260831184601 | 60 | 172 | 0.0 | 0.9 | 0.00 | 0.17 | 0.11 | 92 | 1006.6 |
| 20260831184104 | 60 | 172 | 0.0 | 0.0 | 0.00 | 0.17 | 0.11 | 92 | 1006.5 |
| 20260831183600 | 60 | 172 | 0.0 | 0.9 | 0.00 | 0.17 | 0.11 | 92 | 1006.5 |
| 20260831183108 | 61 | 172 | 0.0 | 0.9 | 0.00 | 0.17 | 0.11 | 92 | 1006.4 |
| 20260831182600 | 61 | 172 | 0.0 | 0.9 | 0.00 | 0.17 | 0.11 | 91 | 1006.4 |
| 20260831182102 | 61 | 172 | 0.0 | 0.9 | 0.00 | 0.17 | 0.11 | 91 | 1006.4 |
| 20260831181607 | 61 | 172 | 0.0 | 0.9 | 0.00 | 0.17 | 0.11 | 91 | 1006.4 |
| 20260831181059 | 62 | 172 | 0.0 | 0.9 | 0.00 | 0.17 | 0.11 | 91 | 1006.2 |
| 20260831180558 | 62 | 172 | 0.0 | 0.9 | 0.00 | 0.17 | 0.11 | 91 | 1006.2 |
| 20260831180113 | 62 | 172 | 0.0 | 1.7 | 0.00 | 0.17 | 0.11 | 91 | 1006.2 |
| 20260831175558 | 62 | 172 | 0.0 | 1.7 | 0.00 | 0.18 | 0.11 | 91 | 1006.1 |
| 20260831175103 | 63 | 172 | 0.0 | 1.7 | 0.00 | 0.18 | 0.11 | 91 | 1006.2 |
| 20260831174558 | 63 | 250 | 0.0 | 1.7 | 0.00 | 0.18 | 0.11 | 90 | 1006.1 |
| 20260831174058 | 63 | 250 | 0.0 | 1.7 | 0.00 | 0.18 | 0.11 | 90 | 1006.1 |
| 20260831173558 | 63 | 250 | 0.0 | 2.6 | 0.00 | 0.18 | 0.11 | 90 | 1006.1 |
| 20260831173058 | 63 | 250 | 0.0 | 3.5 | 0.00 | 0.18 | 0.11 | 90 | 1006.0 |
| 20260831172557 | 63 | 262 | 0.9 | 3.5 | 0.00 | 0.18 | 0.11 | 89 | 1006.1 |
| 20260831172057 | 63 | 158 | 0.0 | 2.6 | 0.00 | 0.18 | 0.11 | 89 | 1006.0 |
| 20260831171557 | 63 | 208 | 0.9 | 2.6 | 0.00 | 0.18 | 0.11 | 89 | 1006.0 |
| 20260831171058 | 63 | 183 | 0.9 | 3.5 | 0.00 | 0.18 | 0.11 | 89 | 1005.9 |
| 20260831170558 | 63 | 229 | 0.0 | 4.3 | 0.00 | 0.18 | 0.11 | 88 | 1005.8 |
| 20260831170058 | 64 | 202 | 0.9 | 4.3 | 0.00 | 0.18 | 0.11 | 88 | 1005.9 |
| 20260831165556 | 64 | 200 | 0.9 | 7.0 | 0.00 | 0.20 | 0.11 | 88 | 1005.9 |
| 20260831165057 | 64 | 167 | 0.9 | 7.0 | 0.01 | 0.20 | 0.11 | 88 | 1005.9 |
| 20260831164557 | 64 | 200 | 2.6 | 7.0 | 0.01 | 0.20 | 0.11 | 88 | 1005.9 |
| 20260831164059 | 64 | 158 | 2.6 | 6.1 | 0.01 | 0.20 | 0.11 | 88 | 1005.8 |
| 20260831163556 | 64 | 275 | 1.7 | 7.8 | 0.01 | 0.20 | 0.11 | 89 | 1005.8 |
| 20260831163056 | 64 | 121 | 3.5 | 7.8 | 0.01 | 0.20 | 0.11 | 89 | 1005.9 |
| 20260831162557 | 64 | 288 | 1.7 | 7.0 | 0.01 | 0.20 | 0.11 | 90 | 1005.9 |
| 20260831162056 | 64 | 224 | 2.6 | 7.0 | 0.01 | 0.20 | 0.11 | 90 | 1005.9 |
| 20260831161555 | 63 | 225 | 2.6 | 7.8 | 0.01 | 0.20 | 0.11 | 90 | 1005.9 |
| 20260831161055 | 63 | 164 | 0.9 | 5.2 | 0.01 | 0.20 | 0.11 | 90 | 1005.9 |
| 20260831160555 | 63 | 216 | 1.7 | 5.2 | 0.01 | 0.20 | 0.11 | 90 | 1005.8 |
| 20260831160054 | 63 | 201 | 0.9 | 7.0 | 0.01 | 0.20 | 0.11 | 90 | 1005.8 |
| 20260831155556 | 63 | 234 | 2.6 | 7.0 | 0.00 | 0.20 | 0.10 | 89 | 1005.8 |
| 20260831155054 | 63 | 286 | 1.7 | 6.1 | 0.00 | 0.20 | 0.10 | 89 | 1005.8 |
| 20260831154557 | 63 | 205 | 0.9 | 9.6 | 0.00 | 0.20 | 0.10 | 89 | 1005.7 |
| 20260831154053 | 63 | 162 | 2.6 | 9.6 | 0.00 | 0.20 | 0.10 | 89 | 1005.8 |
| 20260831153554 | 64 | 196 | 2.6 | 8.7 | 0.00 | 0.20 | 0.10 | 89 | 1005.7 |
| 20260831153058 | 64 | 204 | 0.9 | 7.8 | 0.00 | 0.20 | 0.10 | 89 | 1005.8 |
| 20260831152554 | 64 | 246 | 0.9 | 7.0 | 0.00 | 0.20 | 0.10 | 89 | 1005.7 |
| 20260831152052 | 64 | 216 | 0.9 | 7.0 | 0.01 | 0.20 | 0.10 | 88 | 1005.6 |
| 20260831151604 | 64 | 188 | 1.7 | 8.7 | 0.01 | 0.20 | 0.10 | 88 | 1005.6 |
| 20260831151050 | 64 | 210 | 3.5 | 8.7 | 0.01 | 0.20 | 0.10 | 89 | 1005.7 |
| 20260831150554 | 64 | 192 | 2.6 | 7.0 | 0.01 | 0.20 | 0.10 | 91 | 1005.7 |
| 20260831150051 | 63 | 157 | 2.6 | 7.8 | 0.01 | 0.20 | 0.10 | 91 | 1005.7 |
| 20260831145550 | 63 | 207 | 1.7 | 7.8 | 0.01 | 0.21 | 0.10 | 90 | 1005.7 |
| 20260831145050 | 63 | 299 | 2.6 | 7.8 | 0.01 | 0.21 | 0.10 | 90 | 1005.7 |
| 20260831144550 | 63 | 175 | 1.7 | 7.8 | 0.01 | 0.21 | 0.10 | 90 | 1005.8 |
| 20260831144053 | 63 | 204 | 1.7 | 8.7 | 0.01 | 0.21 | 0.10 | 90 | 1005.7 |
| 20260831143550 | 63 | 227 | 1.7 | 8.7 | 0.01 | 0.21 | 0.10 | 90 | 1005.7 |
| 20260831143050 | 63 | 219 | 1.7 | 6.1 | 0.01 | 0.21 | 0.10 | 90 | 1005.7 |
| 20260831142550 | 63 | 263 | 1.7 | 8.7 | 0.01 | 0.21 | 0.10 | 90 | 1005.7 |
| 20260831142049 | 63 | 192 | 2.6 | 9.6 | 0.00 | 0.20 | 0.09 | 90 | 1005.8 |
| 20260831141549 | 63 | 243 | 2.6 | 6.1 | 0.00 | 0.20 | 0.09 | 91 | 1005.8 |
| 20260831141049 | 63 | 186 | 1.7 | 5.2 | 0.00 | 0.20 | 0.09 | 92 | 1005.8 |
| 20260831140552 | 63 | 175 | 2.6 | 5.2 | 0.00 | 0.20 | 0.09 | 92 | 1005.8 |
| 20260831140055 | 63 | 178 | 0.9 | 6.1 | 0.00 | 0.20 | 0.09 | 92 | 1005.9 |
| 20260831135548 | 63 | 184 | 1.7 | 6.1 | 0.00 | 0.22 | 0.09 | 92 | 1005.8 |
| 20260831135051 | 63 | 117 | 2.6 | 6.1 | 0.00 | 0.22 | 0.09 | 92 | 1005.8 |
| 20260831134548 | 63 | 173 | 2.6 | 7.8 | 0.00 | 0.22 | 0.09 | 92 | 1005.8 |
| 20260831134047 | 63 | 172 | 4.3 | 7.8 | 0.00 | 0.22 | 0.09 | 93 | 1005.8 |
| 20260831133547 | 63 | 167 | 1.7 | 7.0 | 0.00 | 0.22 | 0.09 | 93 | 1005.8 |
| 20260831133049 | 63 | 126 | 2.6 | 6.1 | 0.00 | 0.22 | 0.09 | 94 | 1005.7 |
| 20260831132547 | 63 | 150 | 2.6 | 5.2 | 0.00 | 0.22 | 0.09 | 94 | 1005.7 |
| 20260831132047 | 63 | 209 | 1.7 | 6.1 | 0.00 | 0.22 | 0.09 | 95 | 1005.7 |
| 20260831131545 | 63 | 169 | 1.7 | 6.1 | 0.00 | 0.22 | 0.09 | 95 | 1005.7 |
| 20260831131045 | 63 | 207 | 2.6 | 4.3 | 0.00 | 0.22 | 0.09 | 96 | 1005.7 |
| 20260831130545 | 62 | 173 | 1.7 | 4.3 | 0.00 | 0.22 | 0.09 | 96 | 1005.7 |
| 20260831130049 | 62 | 130 | 0.9 | 4.3 | 0.00 | 0.22 | 0.09 | 96 | 1005.7 |
| 20260831125545 | 61 | 253 | 0.9 | 3.5 | 0.00 | 0.23 | 0.09 | 96 | 1005.7 |
| 20260831125045 | 61 | 170 | 0.9 | 4.3 | 0.00 | 0.23 | 0.09 | 96 | 1005.8 |
| 20260831124551 | 60 | 216 | 0.9 | 2.6 | 0.00 | 0.23 | 0.09 | 96 | 1005.9 |
| 20260831124045 | 60 | 176 | 0.9 | 2.6 | 0.00 | 0.23 | 0.09 | 95 | 1005.9 |
| 20260831123545 | 60 | 186 | 0.0 | 2.6 | 0.00 | 0.23 | 0.09 | 95 | 1006.0 |
| 20260831123045 | 60 | 219 | 0.0 | 1.7 | 0.00 | 0.23 | 0.09 | 95 | 1006.0 |
| 20260831122547 | 60 | 219 | 0.0 | 1.7 | 0.00 | 0.23 | 0.09 | 95 | 1005.9 |
| 20260831122045 | 59 | 219 | 0.0 | 1.7 | 0.00 | 0.23 | 0.09 | 96 | 1005.9 |
| 20260831121546 | 59 | 219 | 0.0 | 2.6 | 0.01 | 0.23 | 0.09 | 95 | 1006.0 |
| 20260831121044 | 59 | 182 | 0.0 | 2.6 | 0.01 | 0.23 | 0.09 | 95 | 1006.0 |
| 20260831120543 | 59 | 182 | 0.9 | 2.6 | 0.01 | 0.23 | 0.09 | 94 | 1006.0 |
| 20260831120044 | 59 | 212 | 0.0 | 2.6 | 0.01 | 0.23 | 0.09 | 94 | 1006.0 |
| 20260831115544 | 59 | 213 | 0.9 | 2.6 | 0.01 | 0.24 | 0.09 | 94 | 1006.0 |
| 20260831115043 | 59 | 212 | 0.0 | 2.6 | 0.01 | 0.24 | 0.09 | 94 | 1006.0 |
| 20260831114544 | 59 | 212 | 0.0 | 2.6 | 0.01 | 0.24 | 0.09 | 94 | 1006.0 |
| 20260831114043 | 59 | 213 | 0.9 | 2.6 | 0.01 | 0.24 | 0.09 | 94 | 1006.0 |
| 20260831113543 | 59 | 261 | 0.9 | 2.6 | 0.01 | 0.24 | 0.09 | 93 | 1005.9 |
| 20260831113044 | 60 | 194 | 0.9 | 5.2 | 0.01 | 0.24 | 0.09 | 93 | 1005.9 |
| 20260831112542 | 60 | 200 | 1.7 | 5.2 | 0.01 | 0.24 | 0.09 | 93 | 1006.0 |
| 20260831112047 | 61 | 178 | 0.0 | 3.5 | 0.01 | 0.24 | 0.09 | 93 | 1005.7 |
| 20260831111543 | 61 | 215 | 0.9 | 10.4 | 0.00 | 0.24 | 0.09 | 92 | 1005.5 |
| 20260831111041 | 62 | 165 | 3.5 | 10.4 | 0.01 | 0.24 | 0.09 | 92 | 1005.7 |
| 20260831110541 | 63 | 210 | 5.2 | 10.4 | 0.01 | 0.24 | 0.09 | 92 | 1005.8 |
| 20260831110045 | 64 | 190 | 3.5 | 8.7 | 0.01 | 0.24 | 0.09 | 93 | 1005.8 |
| 20260831105541 | 64 | 190 | 3.5 | 7.0 | 0.01 | 0.26 | 0.09 | 92 | 1005.8 |
| 20260831105041 | 64 | 218 | 2.6 | 5.2 | 0.01 | 0.26 | 0.09 | 92 | 1005.8 |
| 20260831104558 | 65 | 147 | 1.7 | 7.8 | 0.01 | 0.26 | 0.09 | 92 | 1005.7 |
| 20260831104040 | 65 | 188 | 2.6 | 7.8 | 0.01 | 0.26 | 0.09 | 92 | 1005.7 |
| 20260831103543 | 65 | 136 | 2.6 | 8.7 | 0.01 | 0.26 | 0.09 | 91 | 1005.7 |
| 20260831103039 | 65 | 194 | 3.5 | 8.7 | 0.01 | 0.26 | 0.09 | 90 | 1005.7 |
| 20260831102538 | 66 | 158 | 1.7 | 7.0 | 0.01 | 0.26 | 0.09 | 92 | 1005.8 |
| 20260831102037 | 65 | 149 | 3.5 | 9.6 | 0.01 | 0.26 | 0.09 | 92 | 1005.9 |
| 20260831101536 | 65 | 180 | 3.5 | 9.6 | 0.01 | 0.26 | 0.09 | 92 | 1005.9 |
| 20260831101035 | 65 | 182 | 2.6 | 9.6 | 0.00 | 0.25 | 0.08 | 93 | 1006.0 |
| 20260831100534 | 64 | 203 | 4.3 | 9.6 | 0.00 | 0.25 | 0.08 | 94 | 1005.9 |
| 20260831100038 | 64 | 186 | 3.5 | 9.6 | 0.00 | 0.25 | 0.08 | 94 | 1006.0 |
| 20260831095532 | 64 | 187 | 2.6 | 7.8 | 0.00 | 0.28 | 0.08 | 94 | 1006.0 |
| 20260831095031 | 64 | 197 | 2.6 | 6.1 | 0.00 | 0.28 | 0.08 | 95 | 1006.0 |
| 20260831094538 | 64 | 196 | 1.7 | 10.4 | 0.00 | 0.28 | 0.08 | 96 | 1006.1 |
| 20260831094029 | 63 | 95 | 2.6 | 9.6 | 0.00 | 0.28 | 0.08 | 96 | 1006.1 |
| 20260831093528 | 63 | 196 | 5.2 | 9.6 | 0.00 | 0.28 | 0.08 | 95 | 1006.3 |
| 20260831093032 | 63 | 204 | 3.5 | 6.1 | 0.00 | 0.28 | 0.08 | 95 | 1006.2 |
| 20260831092526 | 63 | 141 | 1.7 | 8.7 | 0.01 | 0.28 | 0.08 | 95 | 1006.2 |
| 20260831092027 | 63 | 178 | 3.5 | 7.8 | 0.01 | 0.28 | 0.08 | 95 | 1006.3 |
| 20260831091525 | 63 | 188 | 2.6 | 8.7 | 0.01 | 0.28 | 0.08 | 96 | 1006.3 |
| 20260831091024 | 63 | 174 | 2.6 | 8.7 | 0.01 | 0.28 | 0.08 | 96 | 1006.5 |
| 20260831090524 | 63 | 203 | 3.5 | 8.7 | 0.01 | 0.28 | 0.08 | 96 | 1006.5 |
| 20260831090023 | 63 | 162 | 2.6 | 7.0 | 0.01 | 0.28 | 0.08 | 97 | 1006.6 |
| 20260831085523 | 62 | 138 | 2.6 | 7.0 | 0.01 | 0.30 | 0.08 | 96 | 1006.6 |
| 20260831085021 | 62 | 153 | 1.7 | 5.2 | 0.01 | 0.30 | 0.08 | 96 | 1006.7 |
| 20260831084533 | 62 | 131 | 1.7 | 8.7 | 0.01 | 0.30 | 0.08 | 96 | 1006.6 |
| 20260831084020 | 61 | 186 | 2.6 | 8.7 | 0.01 | 0.30 | 0.08 | 96 | 1006.7 |
| 20260831083520 | 61 | 202 | 1.7 | 7.8 | 0.01 | 0.30 | 0.08 | 96 | 1006.7 |
| 20260831083035 | 61 | 192 | 1.7 | 5.2 | 0.00 | 0.28 | 0.07 | 96 | 1006.7 |
| 20260831082518 | 61 | 155 | 0.9 | 7.8 | 0.00 | 0.28 | 0.07 | 95 | 1006.7 |
| 20260831082018 | 62 | 188 | 2.6 | 8.7 | 0.00 | 0.28 | 0.07 | 95 | 1006.8 |
| 20260831081517 | 62 | 178 | 1.7 | 7.8 | 0.00 | 0.28 | 0.07 | 95 | 1006.7 |
| 20260831081019 | 62 | 219 | 3.5 | 8.7 | 0.00 | 0.28 | 0.07 | 95 | 1006.8 |
| 20260831080516 | 62 | 198 | 2.6 | 8.7 | 0.00 | 0.28 | 0.07 | 95 | 1006.8 |
| 20260831080026 | 62 | 196 | 2.6 | 6.1 | 0.01 | 0.28 | 0.07 | 95 | 1006.9 |
| 20260831075516 | 62 | 192 | 2.6 | 6.1 | 0.01 | 0.31 | 0.07 | 95 | 1006.9 |
| 20260831075016 | 62 | 187 | 3.5 | 6.1 | 0.01 | 0.31 | 0.07 | 95 | 1006.9 |
| 20260831074517 | 62 | 179 | 1.7 | 7.0 | 0.01 | 0.31 | 0.07 | 95 | 1007.0 |
| 20260831074017 | 62 | 216 | 2.6 | 7.8 | 0.01 | 0.31 | 0.07 | 95 | 1006.9 |
| 20260831073515 | 62 | 178 | 2.6 | 7.8 | 0.01 | 0.31 | 0.07 | 95 | 1006.9 |
| 20260831073019 | 62 | 194 | 1.7 | 7.0 | 0.01 | 0.31 | 0.07 | 96 | 1006.8 |
| 20260831072513 | 62 | 200 | 2.6 | 7.0 | 0.01 | 0.31 | 0.07 | 96 | 1007.0 |
| 20260831072013 | 62 | 182 | 1.7 | 6.1 | 0.01 | 0.31 | 0.07 | 96 | 1007.0 |
| 20260831071512 | 61 | 178 | 0.9 | 4.3 | 0.01 | 0.31 | 0.07 | 97 | 1007.0 |
| 20260831071011 | 61 | 188 | 1.7 | 4.3 | 0.01 | 0.31 | 0.07 | 96 | 1007.1 |
| 20260831070510 | 61 | 186 | 1.7 | 4.3 | 0.01 | 0.31 | 0.07 | 97 | 1007.0 |
| 20260831070011 | 61 | 273 | 0.9 | 4.3 | 0.00 | 0.30 | 0.06 | 97 | 1007.0 |
| 20260831065510 | 61 | 173 | 1.7 | 4.3 | 0.00 | 0.31 | 0.06 | 97 | 1007.0 |
| 20260831065011 | 61 | 177 | 0.9 | 4.3 | 0.00 | 0.31 | 0.06 | 97 | 1007.1 |
| 20260831064509 | 61 | 169 | 0.0 | 2.6 | 0.00 | 0.31 | 0.06 | 97 | 1007.0 |
| 20260831064009 | 61 | 213 | 0.9 | 5.2 | 0.00 | 0.31 | 0.06 | 97 | 1007.1 |
| 20260831063508 | 61 | 186 | 1.7 | 5.2 | 0.00 | 0.31 | 0.06 | 97 | 1007.1 |
| 20260831063008 | 60 | 198 | 1.7 | 5.2 | 0.00 | 0.31 | 0.06 | 98 | 1007.2 |
| 20260831062507 | 60 | 205 | 0.9 | 6.1 | 0.00 | 0.31 | 0.06 | 97 | 1007.1 |
| 20260831062009 | 60 | 200 | 1.7 | 3.5 | 0.01 | 0.31 | 0.06 | 98 | 1007.2 |
| 20260831061504 | 60 | 202 | 0.0 | 2.6 | 0.01 | 0.31 | 0.06 | 98 | 1007.2 |
| 20260831061004 | 60 | 202 | 0.9 | 3.5 | 0.01 | 0.31 | 0.06 | 98 | 1007.3 |
| 20260831060502 | 59 | 202 | 0.9 | 3.5 | 0.01 | 0.31 | 0.06 | 98 | 1007.3 |
| 20260831055559 | 59 | 196 | 0.0 | 2.6 | 0.01 | 0.31 | 0.06 | 98 | 1007.2 |
| 20260831055058 | 58 | 196 | 0.0 | 2.6 | 0.01 | 0.31 | 0.06 | 98 | 1007.3 |
| 20260831054558 | 57 | 227 | 0.0 | 0.9 | 0.01 | 0.31 | 0.06 | 98 | 1007.3 |
| 20260831054055 | 56 | 227 | 0.0 | 0.0 | 0.01 | 0.31 | 0.06 | 98 | 1007.3 |
| 20260831053557 | 55 | 227 | 0.0 | 0.0 | 0.01 | 0.31 | 0.06 | 97 | 1007.3 |
| 20260831053053 | 55 | 227 | 0.0 | 0.0 | 0.01 | 0.31 | 0.06 | 97 | 1007.4 |
| 20260831052553 | 55 | 227 | 0.0 | 0.0 | 0.01 | 0.31 | 0.06 | 97 | 1007.4 |
| 20260831052051 | 55 | 227 | 0.0 | 0.0 | 0.00 | 0.31 | 0.06 | 97 | 1007.4 |
| 20260831051554 | 55 | 227 | 0.0 | 0.0 | 0.01 | 0.31 | 0.06 | 97 | 1007.5 |
| 20260831051050 | 55 | 227 | 0.0 | 0.0 | 0.01 | 0.31 | 0.06 | 97 | 1007.5 |
| 20260831050549 | 55 | 227 | 0.0 | 0.0 | 0.01 | 0.31 | 0.06 | 97 | 1007.5 |
| 20260831050049 | 55 | 227 | 0.0 | 0.0 | 0.01 | 0.31 | 0.06 | 97 | 1007.6 |
| 20260831045548 | 55 | 227 | 0.0 | 0.0 | 0.01 | 0.31 | 0.06 | 97 | 1007.6 |
| 20260831045048 | 55 | 227 | 0.0 | 0.9 | 0.01 | 0.31 | 0.06 | 97 | 1007.6 |
| 20260831044554 | 55 | 227 | 0.0 | 0.9 | 0.01 | 0.31 | 0.06 | 97 | 1007.6 |
| 20260831044047 | 55 | 227 | 0.0 | 0.0 | 0.01 | 0.31 | 0.06 | 97 | 1007.6 |
| 20260831043546 | 55 | 227 | 0.0 | 0.0 | 0.01 | 0.31 | 0.06 | 97 | 1007.5 |
| 20260831043046 | 55 | 227 | 0.0 | 0.0 | 0.01 | 0.31 | 0.06 | 97 | 1007.5 |
| 20260831042549 | 55 | 227 | 0.0 | 0.0 | 0.01 | 0.31 | 0.06 | 97 | 1007.5 |
| 20260831042045 | 55 | 227 | 0.0 | 0.0 | 0.01 | 0.31 | 0.06 | 97 | 1007.6 |
| 20260831041551 | 55 | 227 | 0.0 | 0.0 | 0.00 | 0.30 | 0.05 | 96 | 1007.6 |
| 20260831041048 | 55 | 227 | 0.0 | 0.0 | 0.00 | 0.30 | 0.05 | 96 | 1007.6 |
| 20260831040544 | 55 | 227 | 0.0 | 0.0 | 0.00 | 0.30 | 0.05 | 96 | 1007.6 |
| 20260831040043 | 55 | 227 | 0.0 | 0.0 | 0.00 | 0.30 | 0.05 | 96 | 1007.6 |
| 20260831035546 | 55 | 227 | 0.0 | 0.0 | 0.00 | 0.30 | 0.05 | 96 | 1007.6 |
| 20260831035042 | 55 | 227 | 0.0 | 0.0 | 0.00 | 0.30 | 0.05 | 96 | 1007.6 |
| 20260831034542 | 55 | 227 | 0.0 | 0.0 | 0.00 | 0.30 | 0.05 | 96 | 1007.6 |
| 20260831034042 | 55 | 227 | 0.0 | 0.0 | 0.01 | 0.30 | 0.05 | 96 | 1007.7 |
| 20260831033542 | 56 | 227 | 0.0 | 0.0 | 0.01 | 0.30 | 0.05 | 96 | 1007.7 |
| 20260831033042 | 56 | 227 | 0.0 | 0.0 | 0.01 | 0.30 | 0.05 | 96 | 1007.7 |
| 20260831032541 | 56 | 227 | 0.0 | 0.0 | 0.01 | 0.30 | 0.05 | 96 | 1007.7 |